| time (UTC) | temp F | wind direction | speed knots | gust knots | rain 1hr in | rain 24hr in | rain mn in | humidity % | barometer mb |
| 20260902034521 | 63 | 151 | 5.2 | 7.0 | 0.00 | 0.00 | 0.00 | ||
| 20260902034120 | 62 | 152 | 5.2 | 7.8 | 0.00 | 0.00 | 0.00 | ||
| 20260902033718 | 63 | 133 | 4.3 | 7.0 | 0.00 | 0.00 | 0.00 | ||
| 20260902033316 | 63 | 155 | 5.2 | 7.8 | 0.00 | 0.00 | 0.00 | ||
| 20260902032908 | 63 | 150 | 5.2 | 7.8 | 0.00 | 0.00 | 0.00 | ||
| 20260902032506 | 62 | 148 | 4.3 | 7.8 | 0.00 | 0.00 | 0.00 | ||
| 20260902032104 | 62 | 153 | 4.3 | 6.1 | 0.00 | 0.00 | 0.00 | ||
| 20260902031703 | 62 | 151 | 7.0 | 8.7 | 0.00 | 0.00 | 0.00 | ||
| 20260902031301 | 63 | 158 | 6.1 | 7.8 | 0.00 | 0.00 | 0.00 | ||
| 20260902030901 | 63 | 151 | 5.2 | 7.0 | 0.00 | 0.00 | 0.00 | ||
| 20260902030457 | 63 | 147 | 4.3 | 7.0 | 0.00 | 0.00 | 0.00 | ||
| 20260902030056 | 63 | 144 | 5.2 | 8.7 | 0.00 | 0.00 | 0.00 | ||
| 20260902025655 | 62 | 132 | 5.2 | 7.8 | 0.00 | 0.00 | 0.00 | ||
| 20260902025254 | 62 | 142 | 5.2 | 7.8 | 0.00 | 0.00 | 0.00 | ||
| 20260902024844 | 63 | 148 | 6.1 | 7.8 | 0.00 | 0.00 | 0.00 | ||
| 20260902024443 | 62 | 152 | 5.2 | 7.0 | 0.00 | 0.00 | 0.00 | ||
| 20260902024042 | 62 | 151 | 6.1 | 7.8 | 0.00 | 0.00 | 0.00 | ||
| 20260902023641 | 62 | 152 | 5.2 | 8.7 | 0.00 | 0.00 | 0.00 | ||
| 20260902023239 | 62 | 151 | 5.2 | 8.7 | 0.00 | 0.00 | 0.00 | ||
| 20260902022837 | 62 | 145 | 6.1 | 8.7 | 0.00 | 0.00 | 0.00 | ||
| 20260902022435 | 62 | 155 | 3.5 | 7.0 | 0.00 | 0.00 | 0.00 | ||
| 20260902022034 | 62 | 146 | 4.3 | 7.0 | 0.00 | 0.00 | 0.00 | ||
| 20260902021633 | 62 | 146 | 2.6 | 5.2 | 0.00 | 0.00 | 0.00 | ||
| 20260902021230 | 61 | 157 | 3.5 | 5.2 | 0.00 | 0.00 | 0.00 | ||
| 20260902020822 | 61 | 159 | 4.3 | 7.0 | 0.00 | 0.00 | 0.00 | ||
| 20260902020420 | 62 | 153 | 4.3 | 6.1 | 0.00 | 0.00 | 0.00 | ||
| 20260902020019 | 61 | 152 | 5.2 | 7.0 | 0.00 | 0.00 | 0.00 | ||
| 20260902015617 | 62 | 153 | 3.5 | 7.0 | 0.00 | 0.00 | 0.00 | ||
| 20260902015215 | 62 | 150 | 5.2 | 7.0 | 0.00 | 0.00 | 0.00 | ||
| 20260902014814 | 62 | 151 | 5.2 | 7.0 | 0.00 | 0.00 | 0.00 | ||
| 20260902014412 | 62 | 157 | 6.1 | 8.7 | 0.00 | 0.00 | 0.00 | ||
| 20260902014010 | 62 | 156 | 4.3 | 7.0 | 0.00 | 0.00 | 0.00 | ||
| 20260902013609 | 62 | 158 | 5.2 | 7.8 | 0.00 | 0.00 | 0.00 | ||
| 20260902013207 | 63 | 145 | 5.2 | 7.8 | 0.00 | 0.00 | 0.00 | ||
| 20260902012759 | 63 | 148 | 5.2 | 7.8 | 0.00 | 0.00 | 0.00 | ||
| 20260902012358 | 62 | 140 | 4.3 | 7.8 | 0.00 | 0.00 | 0.00 | ||
| 20260902011955 | 62 | 153 | 3.5 | 7.0 | 0.00 | 0.00 | 0.00 | ||
| 20260902011555 | 62 | 150 | 4.3 | 6.1 | 0.00 | 0.00 | 0.00 | ||
| 20260902011153 | 62 | 154 | 4.3 | 6.1 | 0.00 | 0.00 | 0.00 | ||
| 20260902010752 | 63 | 158 | 4.3 | 7.0 | 0.00 | 0.00 | 0.00 | ||
| 20260902010349 | 63 | 160 | 6.1 | 7.8 | 0.00 | 0.00 | 0.00 | ||
| 20260902005948 | 63 | 158 | 4.3 | 7.0 | 0.00 | 0.00 | 0.00 | ||
| 20260902005547 | 62 | 153 | 5.2 | 7.0 | 0.00 | 0.00 | 0.00 | ||
| 20260902005145 | 63 | 152 | 2.6 | 5.2 | 0.00 | 0.00 | 0.00 | ||
| 20260902004736 | 63 | 144 | 4.3 | 7.0 | 0.00 | 0.00 | 0.00 | ||
| 20260902004334 | 63 | 157 | 5.2 | 7.8 | 0.00 | 0.00 | 0.00 | ||
| 20260902003933 | 62 | 155 | 3.5 | 6.1 | 0.00 | 0.00 | 0.00 | ||
| 20260902003532 | 63 | 156 | 6.1 | 7.8 | 0.00 | 0.00 | 0.00 | ||
| 20260902003129 | 62 | 156 | 4.3 | 7.8 | 0.00 | 0.00 | 0.00 | ||
| 20260902002728 | 62 | 151 | 5.2 | 7.8 | 0.00 | 0.00 | 0.00 | ||
| 20260902002326 | 62 | 153 | 4.3 | 6.1 | 0.00 | 0.00 | 0.00 | ||
| 20260902001925 | 62 | 161 | 5.2 | 7.0 | 0.00 | 0.00 | 0.00 | ||
| 20260902001524 | 62 | 143 | 4.3 | 7.0 | 0.00 | 0.00 | 0.00 | ||
| 20260902001121 | 63 | 150 | 3.5 | 5.2 | 0.00 | 0.00 | 0.00 | ||
| 20260902000713 | 62 | 143 | 3.5 | 5.2 | 0.00 | 0.00 | 0.00 | ||
| 20260902000312 | 63 | 150 | 3.5 | 5.2 | 0.00 | 0.00 | 0.00 | ||
| 20260901235508 | 63 | 158 | 5.2 | 7.0 | 0.00 | 0.00 | 0.00 | ||
| 20260901235106 | 62 | 159 | 3.5 | 7.8 | 0.00 | 0.00 | 0.00 | ||
| 20260901234705 | 63 | 157 | 3.5 | 7.0 | 0.00 | 0.00 | 0.00 | ||
| 20260901234303 | 63 | 153 | 5.2 | 8.7 | 0.00 | 0.00 | 0.00 | ||
| 20260901233901 | 63 | 157 | 3.5 | 6.1 | 0.00 | 0.00 | 0.00 | ||
| 20260901233500 | 62 | 162 | 3.5 | 5.2 | 0.00 | 0.00 | 0.00 | ||
| 20260901233058 | 62 | 162 | 4.3 | 7.0 | 0.00 | 0.00 | 0.00 | ||
| 20260901232651 | 63 | 162 | 3.5 | 5.2 | 0.00 | 0.00 | 0.00 | ||
| 20260901232247 | 62 | 161 | 4.3 | 6.1 | 0.00 | 0.00 | 0.00 | ||
| 20260901231847 | 62 | 156 | 2.6 | 4.3 | 0.00 | 0.00 | 0.00 | ||
| 20260901231446 | 62 | 158 | 3.5 | 6.1 | 0.00 | 0.00 | 0.00 | ||
| 20260901231044 | 62 | 157 | 3.5 | 4.3 | 0.00 | 0.00 | 0.00 | ||
| 20260901230643 | 63 | 154 | 3.5 | 5.2 | 0.00 | 0.00 | 0.00 | ||
| 20260901230240 | 63 | 157 | 2.6 | 3.5 | 0.00 | 0.00 | 0.00 | ||
| 20260901225839 | 63 | 157 | 2.6 | 5.2 | 0.00 | 0.00 | 0.00 | ||
| 20260901225438 | 64 | 145 | 2.6 | 4.3 | 0.00 | 0.00 | 0.00 | ||
| 20260901225036 | 63 | 145 | 2.6 | 3.5 | 0.00 | 0.00 | 0.00 | ||
| 20260901224627 | 63 | 138 | 3.5 | 5.2 | 0.00 | 0.00 | 0.00 | ||
| 20260901224225 | 63 | 147 | 5.2 | 6.1 | 0.00 | 0.00 | 0.00 | ||
| 20260901223824 | 64 | 153 | 3.5 | 7.0 | 0.00 | 0.00 | 0.00 | ||
| 20260901223423 | 63 | 157 | 3.5 | 5.2 | 0.00 | 0.00 | 0.00 | ||
| 20260901223020 | 63 | 157 | 4.3 | 6.1 | 0.00 | 0.00 | 0.00 | ||
| 20260901222217 | 63 | 157 | 2.6 | 4.3 | 0.00 | 0.00 | 0.00 | ||
| 20260901221816 | 64 | 144 | 3.5 | 5.2 | 0.00 | 0.00 | 0.00 | ||
| 20260901221414 | 65 | 133 | 3.5 | 6.1 | 0.00 | 0.00 | 0.00 | ||
| 20260901221014 | 64 | 124 | 2.6 | 5.2 | 0.00 | 0.00 | 0.00 | ||
| 20260901220604 | 63 | 133 | 2.6 | 4.3 | 0.00 | 0.00 | 0.00 | ||
| 20260901220203 | 63 | 135 | 2.6 | 4.3 | 0.00 | 0.00 | 0.00 | ||
| 20260901215802 | 63 | 138 | 3.5 | 4.3 | 0.00 | 0.00 | 0.00 | ||
| 20260901215359 | 64 | 141 | 2.6 | 4.3 | 0.00 | 0.00 | 0.00 | ||
| 20260901214958 | 63 | 144 | 3.5 | 5.2 | 0.00 | 0.00 | 0.00 | ||
| 20260901214557 | 64 | 140 | 2.6 | 3.5 | 0.00 | 0.00 | 0.00 | ||
| 20260901214154 | 63 | 135 | 2.6 | 3.5 | 0.00 | 0.00 | 0.00 | ||
| 20260901213752 | 63 | 135 | 2.6 | 4.3 | 0.00 | 0.00 | 0.00 | ||
| 20260901213351 | 63 | 157 | 2.6 | 4.3 | 0.00 | 0.00 | 0.00 | ||
| 20260901212949 | 63 | 157 | 2.6 | 4.3 | 0.00 | 0.00 | 0.00 | ||
| 20260901212541 | 64 | 157 | 2.6 | 4.3 | 0.00 | 0.00 | 0.00 | ||
| 20260901212138 | 63 | 157 | 2.6 | 4.3 | 0.00 | 0.00 | 0.00 | ||
| 20260901211737 | 63 | 159 | 3.5 | 4.3 | 0.00 | 0.00 | 0.00 | ||
| 20260901211336 | 64 | 143 | 2.6 | 5.2 | 0.00 | 0.00 | 0.00 | ||
| 20260901210935 | 64 | 147 | 2.6 | 3.5 | 0.00 | 0.00 | 0.00 | ||
| 20260901210532 | 63 | 157 | 2.6 | 4.3 | 0.00 | 0.00 | 0.00 | ||
| 20260901210131 | 65 | 140 | 3.5 | 5.2 | 0.00 | 0.00 | 0.00 | ||
| 20260901205730 | 65 | 147 | 2.6 | 4.3 | 0.00 | 0.00 | 0.00 | ||
| 20260901205329 | 65 | 147 | 3.5 | 6.1 | 0.00 | 0.00 | 0.00 | ||
| 20260901204927 | 65 | 157 | 3.5 | 5.2 | 0.00 | 0.00 | 0.00 | ||
| 20260901204518 | 63 | 157 | 2.6 | 4.3 | 0.00 | 0.00 | 0.00 | ||
| 20260901204115 | 63 | 143 | 1.7 | 3.5 | 0.00 | 0.00 | 0.00 | ||
| 20260901203714 | 64 | 153 | 2.6 | 5.2 | 0.00 | 0.00 | 0.00 | ||
| 20260901203313 | 64 | 139 | 1.7 | 3.5 | 0.00 | 0.00 | 0.00 | ||
| 20260901202910 | 64 | 157 | 2.6 | 5.2 | 0.00 | 0.00 | 0.00 | ||
| 20260901202509 | 64 | 135 | 1.7 | 2.6 | 0.00 | 0.00 | 0.00 | ||
| 20260901202106 | 65 | 157 | 1.7 | 2.6 | 0.00 | 0.00 | 0.00 | ||
| 20260901201705 | 65 | 143 | 2.6 | 4.3 | 0.00 | 0.00 | 0.00 | ||
| 20260901201303 | 65 | 153 | 2.6 | 4.3 | 0.00 | 0.00 | 0.00 | ||
| 20260901200901 | 65 | 136 | 2.6 | 3.5 | 0.00 | 0.00 | 0.00 | ||
| 20260901200453 | 64 | 135 | 1.7 | 2.6 | 0.00 | 0.00 | 0.00 | ||
| 20260901200051 | 65 | 138 | 1.7 | 3.5 | 0.00 | 0.00 | 0.00 | ||
| 20260901195649 | 64 | 135 | 1.7 | 2.6 | 0.00 | 0.00 | 0.00 | ||
| 20260901195248 | 63 | 197 | 0.9 | 1.7 | 0.00 | 0.00 | 0.00 | ||
| 20260901194846 | 63 | 202 | 0.9 | 1.7 | 0.00 | 0.00 | 0.00 | ||
| 20260901194445 | 63 | 202 | 0.9 | 1.7 | 0.00 | 0.00 | 0.00 | ||
| 20260901194043 | 63 | 202 | 0.9 | 1.7 | 0.00 | 0.00 | 0.00 | ||
| 20260901193641 | 64 | 213 | 1.7 | 3.5 | 0.00 | 0.00 | 0.00 | ||
| 20260901193240 | 64 | 225 | 1.7 | 1.7 | 0.00 | 0.00 | 0.00 | ||
| 20260901192839 | 63 | 225 | 0.0 | 0.9 | 0.00 | 0.00 | 0.00 | ||
| 20260901192431 | 63 | 225 | 0.9 | 1.7 | 0.00 | 0.00 | 0.00 | ||
| 20260901192027 | 64 | 225 | 0.9 | 1.7 | 0.00 | 0.00 | 0.00 | ||
| 20260901191627 | 65 | 237 | 1.7 | 3.5 | 0.00 | 0.00 | 0.00 | ||
| 20260901191226 | 65 | 248 | 2.6 | 2.6 | 0.00 | 0.00 | 0.00 | ||
| 20260901190824 | 64 | 292 | 1.7 | 1.7 | 0.00 | 0.00 | 0.00 | ||
| 20260901190422 | 64 | 292 | 0.0 | 0.9 | 0.00 | 0.00 | 0.00 | ||
| 20260901190020 | 65 | 292 | 0.0 | 1.7 | 0.00 | 0.00 | 0.00 | ||
| 20260901185619 | 65 | 292 | 0.0 | 0.9 | 0.00 | 0.00 | 0.00 | ||
| 20260901185218 | 65 | 292 | 0.9 | 1.7 | 0.00 | 0.00 | 0.00 | ||
| 20260901184815 | 65 | 292 | 0.9 | 1.7 | 0.00 | 0.00 | 0.00 | ||
| 20260901184407 | 65 | 292 | 0.9 | 1.7 | 0.00 | 0.00 | 0.00 | ||
| 20260901184005 | 65 | 292 | 0.9 | 1.7 | 0.00 | 0.00 | 0.00 | ||
| 20260901183604 | 65 | 298 | 0.9 | 1.7 | 0.00 | 0.00 | 0.00 | ||
| 20260901183203 | 65 | 315 | 0.0 | 0.9 | 0.00 | 0.00 | 0.00 | ||
| 20260901182800 | 65 | 315 | 0.0 | 0.0 | 0.00 | 0.00 | 0.00 | ||
| 20260901182359 | 65 | 315 | 0.0 | 0.0 | 0.00 | 0.00 | 0.00 | ||
| 20260901181957 | 67 | 315 | 0.0 | 0.0 | 0.00 | 0.00 | 0.00 | ||
| 20260901181556 | 68 | 315 | 0.0 | 0.0 | 0.00 | 0.00 | 0.00 | ||
| 20260901181154 | 68 | 315 | 0.0 | 0.0 | 0.00 | 0.00 | 0.00 | ||
| 20260901180752 | 68 | 313 | 0.0 | 1.7 | 0.00 | 0.00 | 0.00 | ||
| 20260901180344 | 68 | 315 | 0.0 | 0.0 | 0.00 | 0.00 | 0.00 | ||
| 20260901175942 | 67 | 315 | 0.0 | 0.0 | 0.00 | 0.00 | 0.00 | ||
| 20260901175540 | 67 | 315 | 0.0 | 0.0 | 0.00 | 0.00 | 0.00 | ||
| 20260901175139 | 68 | 315 | 0.0 | 0.9 | 0.00 | 0.00 | 0.00 | ||
| 20260901174737 | 68 | 315 | 0.9 | 1.7 | 0.00 | 0.00 | 0.00 | ||
| 20260901174336 | 68 | 315 | 0.9 | 1.7 | 0.00 | 0.00 | 0.00 | ||
| 20260901173532 | 69 | 315 | 0.9 | 1.7 | 0.00 | 0.00 | 0.00 | ||
| 20260901173414 | 69 | 315 | 0.0 | 1.7 | 0.00 | 0.00 | 0.00 | ||
| 20260901173131 | 69 | 315 | 0.0 | 1.7 | 0.00 | 0.00 | 0.00 | ||
| 20260901172729 | 70 | 315 | 0.9 | 1.7 | 0.00 | 0.00 | 0.00 | ||
| 20260901171918 | 70 | 315 | 0.0 | 1.7 | 0.00 | 0.00 | 0.00 | ||
| 20260901171517 | 71 | 293 | 1.7 | 3.5 | 0.00 | 0.00 | 0.00 | ||
| 20260901171116 | 71 | 292 | 0.9 | 1.7 | 0.00 | 0.00 | 0.00 | ||
| 20260901170714 | 71 | 292 | 0.9 | 2.6 | 0.00 | 0.00 | 0.00 | ||
| 20260901170312 | 71 | 295 | 1.7 | 2.6 | 0.00 | 0.00 | 0.00 | ||
| 20260901165911 | 71 | 305 | 2.6 | 4.3 | 0.00 | 0.00 | 0.00 | ||
| 20260901165510 | 72 | 292 | 2.6 | 5.2 | 0.00 | 0.00 | 0.00 | ||
| 20260901165109 | 73 | 292 | 2.6 | 3.5 | 0.00 | 0.00 | 0.00 | ||
| 20260901164706 | 74 | 292 | 3.5 | 4.3 | 0.00 | 0.00 | 0.00 | ||
| 20260901164258 | 75 | 307 | 3.5 | 5.2 | 0.00 | 0.00 | 0.00 | ||
| 20260901163856 | 77 | 315 | 1.7 | 3.5 | 0.00 | 0.00 | 0.00 | ||
| 20260901163455 | 76 | 298 | 2.6 | 5.2 | 0.00 | 0.00 | 0.00 | ||
| 20260901163053 | 77 | 295 | 4.3 | 6.1 | 0.00 | 0.00 | 0.00 | ||
| 20260901162651 | 77 | 301 | 3.5 | 6.1 | 0.00 | 0.00 | 0.00 | ||
| 20260901162250 | 77 | 315 | 1.7 | 3.5 | 0.00 | 0.00 | 0.00 | ||
| 20260901161848 | 75 | 286 | 3.5 | 4.3 | 0.00 | 0.00 | 0.00 | ||
| 20260901161447 | 74 | 273 | 4.3 | 7.0 | 0.00 | 0.00 | 0.00 | ||
| 20260901161045 | 74 | 292 | 4.3 | 7.0 | 0.00 | 0.00 | 0.00 | ||
| 20260901160643 | 74 | 292 | 3.5 | 6.1 | 0.00 | 0.00 | 0.00 | ||
| 20260901160235 | 73 | 301 | 2.6 | 5.2 | 0.00 | 0.00 | 0.00 | ||
| 20260901155833 | 73 | 287 | 3.5 | 5.2 | 0.00 | 0.00 | 0.00 | ||
| 20260901155431 | 73 | 292 | 2.6 | 3.5 | 0.00 | 0.00 | 0.00 | ||
| 20260901155030 | 73 | 277 | 1.7 | 2.6 | 0.00 | 0.00 | 0.00 | ||
| 20260901154628 | 72 | 289 | 2.6 | 5.2 | 0.00 | 0.00 | 0.00 | ||
| 20260901154228 | 73 | 290 | 2.6 | 4.3 | 0.00 | 0.00 | 0.00 | ||
| 20260901153824 | 72 | 304 | 1.7 | 4.3 | 0.00 | 0.00 | 0.00 | ||
| 20260901153423 | 73 | 298 | 4.3 | 7.0 | 0.00 | 0.00 | 0.00 | ||
| 20260901153022 | 73 | 297 | 3.5 | 5.2 | 0.00 | 0.00 | 0.00 | ||
| 20260901152621 | 73 | 278 | 3.5 | 5.2 | 0.00 | 0.00 | 0.00 | ||
| 20260901152211 | 73 | 302 | 2.6 | 4.3 | 0.00 | 0.00 | 0.00 | ||
| 20260901151810 | 72 | 296 | 4.3 | 7.8 | 0.00 | 0.00 | 0.00 | ||
| 20260901151409 | 72 | 297 | 4.3 | 7.0 | 0.00 | 0.00 | 0.00 | ||
| 20260901151008 | 72 | 301 | 4.3 | 7.8 | 0.00 | 0.00 | 0.00 | ||
| 20260901150606 | 73 | 291 | 4.3 | 7.0 | 0.00 | 0.00 | 0.00 | ||
| 20260901150204 | 72 | 314 | 2.6 | 4.3 | 0.00 | 0.00 | 0.00 | ||
| 20260901145802 | 72 | 308 | 3.5 | 5.2 | 0.00 | 0.00 | 0.00 | ||
| 20260901145401 | 72 | 295 | 4.3 | 7.8 | 0.00 | 0.00 | 0.00 | ||
| 20260901145000 | 73 | 298 | 2.6 | 6.1 | 0.00 | 0.00 | 0.00 | ||
| 20260901144557 | 73 | 296 | 2.6 | 3.5 | 0.00 | 0.00 | 0.00 | ||
| 20260901144149 | 72 | 313 | 4.3 | 7.0 | 0.00 | 0.00 | 0.00 | ||
| 20260901143747 | 73 | 289 | 2.6 | 4.3 | 0.00 | 0.00 | 0.00 | ||
| 20260901143346 | 73 | 279 | 1.7 | 3.5 | 0.00 | 0.00 | 0.00 | ||
| 20260901142944 | 73 | 289 | 4.3 | 7.8 | 0.00 | 0.00 | 0.00 | ||
| 20260901142542 | 73 | 309 | 3.5 | 5.2 | 0.00 | 0.00 | 0.00 | ||
| 20260901142141 | 73 | 302 | 4.3 | 6.1 | 0.00 | 0.00 | 0.00 | ||
| 20260901141739 | 73 | 298 | 3.5 | 5.2 | 0.00 | 0.00 | 0.00 | ||
| 20260901141337 | 73 | 292 | 3.5 | 7.0 | 0.00 | 0.00 | 0.00 | ||
| 20260901140936 | 73 | 303 | 2.6 | 4.3 | 0.00 | 0.00 | 0.00 | ||
| 20260901140534 | 73 | 294 | 4.3 | 7.8 | 0.00 | 0.00 | 0.00 | ||
| 20260901140126 | 73 | 298 | 3.5 | 6.1 | 0.00 | 0.00 | 0.00 | ||
| 20260901135725 | 74 | 270 | 1.7 | 4.3 | 0.00 | 0.00 | 0.00 | ||
| 20260901135322 | 73 | 298 | 4.3 | 7.8 | 0.00 | 0.00 | 0.00 | ||
| 20260901134922 | 73 | 306 | 3.5 | 6.1 | 0.00 | 0.00 | 0.00 | ||
| 20260901134520 | 74 | 255 | 7.0 | 9.6 | 0.00 | 0.00 | 0.00 | ||
| 20260901134119 | 75 | 277 | 3.5 | 5.2 | 0.00 | 0.00 | 0.00 | ||
| 20260901133716 | 75 | 266 | 4.3 | 8.7 | 0.00 | 0.00 | 0.00 | ||
| 20260901133315 | 74 | 279 | 5.2 | 7.0 | 0.00 | 0.00 | 0.00 | ||
| 20260901132914 | 75 | 256 | 4.3 | 8.7 | 0.00 | 0.00 | 0.00 | ||
| 20260901132512 | 74 | 257 | 6.1 | 8.7 | 0.00 | 0.00 | 0.00 | ||
| 20260901132103 | 75 | 277 | 6.1 | 7.8 | 0.00 | 0.00 | 0.00 | ||
| 20260901131700 | 75 | 256 | 7.0 | 11.3 | 0.00 | 0.00 | 0.00 | ||
| 20260901131259 | 75 | 268 | 8.7 | 11.3 | 0.00 | 0.00 | 0.00 | ||
| 20260901130858 | 76 | 250 | 6.1 | 8.7 | 0.00 | 0.00 | 0.00 | ||
| 20260901130454 | 75 | 261 | 7.0 | 10.4 | 0.00 | 0.00 | 0.00 | ||
| 20260901130053 | 76 | 277 | 3.5 | 7.8 | 0.00 | 0.00 | 0.00 | ||
| 20260901125651 | 75 | 231 | 5.2 | 7.8 | 0.00 | 0.00 | 0.00 | ||
| 20260901125250 | 75 | 261 | 7.8 | 10.4 | 0.00 | 0.00 | 0.00 | ||
| 20260901124849 | 76 | 243 | 6.1 | 9.6 | 0.00 | 0.00 | 0.00 | ||
| 20260901124446 | 76 | 261 | 9.6 | 13.0 | 0.00 | 0.00 | 0.00 | ||
| 20260901124038 | 76 | 256 | 7.0 | 12.2 | 0.00 | 0.00 | 0.00 | ||
| 20260901123636 | 76 | 267 | 7.0 | 10.4 | 0.00 | 0.00 | 0.00 | ||
| 20260901123235 | 76 | 240 | 7.8 | 12.2 | 0.00 | 0.00 | 0.00 | ||
| 20260901122431 | 75 | 250 | 7.8 | 13.0 | 0.00 | 0.00 | 0.00 | ||
| 20260901121628 | 77 | 238 | 7.0 | 13.0 | 0.00 | 0.00 | 0.00 | ||
| 20260901121226 | 77 | 241 | 7.0 | 12.2 | 0.00 | 0.00 | 0.00 | ||
| 20260901120825 | 75 | 244 | 6.1 | 9.6 | 0.00 | 0.00 | 0.00 | ||
| 20260901120423 | 75 | 231 | 7.0 | 13.0 | 0.00 | 0.00 | 0.00 | ||
| 20260901120015 | 75 | 218 | 7.8 | 12.2 | 0.00 | 0.00 | 0.00 | ||
| 20260901115612 | 75 | 240 | 9.6 | 13.9 | 0.00 | 0.00 | 0.00 | ||
| 20260901115211 | 75 | 233 | 5.2 | 8.7 | 0.00 | 0.00 | 0.00 | ||
| 20260901114810 | 75 | 250 | 7.8 | 13.0 | 0.00 | 0.00 | 0.00 | ||
| 20260901114409 | 76 | 233 | 8.7 | 10.4 | 0.00 | 0.00 | 0.00 | ||
| 20260901114008 | 75 | 257 | 7.8 | 13.0 | 0.00 | 0.00 | 0.00 | ||
| 20260901113605 | 74 | 263 | 8.7 | 13.9 | 0.00 | 0.00 | 0.00 | ||
| 20260901113204 | 76 | 254 | 7.8 | 11.3 | 0.00 | 0.00 | 0.00 | ||
| 20260901112803 | 76 | 220 | 7.8 | 10.4 | 0.00 | 0.00 | 0.00 | ||
| 20260901112401 | 76 | 235 | 5.2 | 8.7 | 0.00 | 0.00 | 0.00 | ||
| 20260901111952 | 76 | 242 | 4.3 | 10.4 | 0.00 | 0.00 | 0.00 | ||
| 20260901111550 | 74 | 238 | 6.1 | 9.6 | 0.00 | 0.00 | 0.00 | ||
| 20260901111149 | 74 | 237 | 7.0 | 9.6 | 0.00 | 0.00 | 0.00 | ||
| 20260901110748 | 75 | 218 | 8.7 | 17.4 | 0.00 | 0.00 | 0.00 | ||
| 20260901110345 | 74 | 223 | 7.0 | 11.3 | 0.00 | 0.00 | 0.00 | ||
| 20260901105944 | 73 | 260 | 5.2 | 10.4 | 0.00 | 0.00 | 0.00 | ||
| 20260901105542 | 73 | 249 | 6.1 | 8.7 | 0.00 | 0.00 | 0.00 | ||
| 20260901105141 | 73 | 251 | 4.3 | 8.7 | 0.00 | 0.00 | 0.00 | ||
| 20260901104739 | 73 | 247 | 8.7 | 13.0 | 0.00 | 0.00 | 0.00 | ||
| 20260901104337 | 74 | 244 | 7.8 | 12.2 | 0.00 | 0.00 | 0.00 | ||
| 20260901103929 | 74 | 258 | 7.0 | 10.4 | 0.00 | 0.00 | 0.00 | ||
| 20260901103527 | 74 | 223 | 5.2 | 12.2 | 0.00 | 0.00 | 0.00 | ||
| 20260901103126 | 72 | 258 | 7.0 | 10.4 | 0.00 | 0.00 | 0.00 | ||
| 20260901102724 | 73 | 275 | 7.8 | 11.3 | 0.00 | 0.00 | 0.00 | ||
| 20260901102322 | 73 | 263 | 6.1 | 8.7 | 0.00 | 0.00 | 0.00 | ||
| 20260901101921 | 72 | 263 | 7.8 | 11.3 | 0.00 | 0.00 | 0.00 | ||
| 20260901101520 | 73 | 242 | 7.0 | 11.3 | 0.00 | 0.00 | 0.00 | ||
| 20260901101117 | 74 | 271 | 7.8 | 13.0 | 0.00 | 0.00 | 0.00 | ||
| 20260901100716 | 73 | 214 | 7.0 | 13.0 | 0.00 | 0.00 | 0.00 | ||
| 20260901100315 | 73 | 232 | 6.1 | 12.2 | 0.00 | 0.00 | 0.00 | ||
| 20260901095907 | 74 | 263 | 6.1 | 11.3 | 0.00 | 0.00 | 0.00 | ||
| 20260901095504 | 74 | 243 | 6.1 | 9.6 | 0.00 | 0.00 | 0.00 | ||
| 20260901095103 | 73 | 228 | 7.0 | 11.3 | 0.00 | 0.00 | 0.00 | ||
| 20260901094702 | 72 | 278 | 7.0 | 8.7 | 0.00 | 0.00 | 0.00 | ||
| 20260901094300 | 73 | 247 | 6.1 | 9.6 | 0.00 | 0.00 | 0.00 | ||
| 20260901093858 | 73 | 248 | 7.0 | 10.4 | 0.00 | 0.00 | 0.00 | ||
| 20260901093456 | 73 | 232 | 6.1 | 10.4 | 0.00 | 0.00 | 0.00 | ||
| 20260901093055 | 72 | 254 | 5.2 | 10.4 | 0.00 | 0.00 | 0.00 | ||
| 20260901092654 | 72 | 258 | 7.8 | 11.3 | 0.00 | 0.00 | 0.00 | ||
| 20260901091843 | 72 | 241 | 5.2 | 7.8 | 0.00 | 0.00 | 0.00 | ||
| 20260901091441 | 71 | 244 | 7.8 | 9.6 | 0.00 | 0.00 | 0.00 | ||
| 20260901091040 | 72 | 219 | 3.5 | 6.1 | 0.00 | 0.00 | 0.00 | ||
| 20260901090639 | 72 | 240 | 5.2 | 7.8 | 0.00 | 0.00 | 0.00 | ||
| 20260901090236 | 71 | 266 | 4.3 | 6.1 | 0.00 | 0.00 | 0.00 | ||
| 20260901085835 | 72 | 267 | 6.1 | 7.8 | 0.00 | 0.00 | 0.00 | ||
| 20260901085433 | 72 | 241 | 6.1 | 9.6 | 0.00 | 0.00 | 0.00 | ||
| 20260901085033 | 71 | 260 | 7.8 | 9.6 | 0.00 | 0.00 | 0.00 | ||
| 20260901084630 | 72 | 222 | 7.0 | 13.0 | 0.00 | 0.00 | 0.00 | ||
| 20260901084309 | 72 | 255 | 7.0 | 10.4 | 0.00 | 0.00 | 0.00 | ||
| 20260901084229 | 72 | 255 | 7.0 | 10.4 | 0.00 | 0.00 | 0.00 | ||
| 20260901083821 | 71 | 248 | 6.1 | 9.6 | 0.00 | 0.00 | 0.00 | ||
| 20260901083419 | 71 | 272 | 6.1 | 8.7 | 0.00 | 0.00 | 0.00 | ||
| 20260901083017 | 70 | 281 | 6.1 | 7.8 | 0.00 | 0.00 | 0.00 | ||
| 20260901082616 | 70 | 295 | 7.0 | 10.4 | 0.00 | 0.00 | 0.00 | ||
| 20260901082214 | 72 | 254 | 4.3 | 8.7 | 0.00 | 0.00 | 0.00 | ||
| 20260901081813 | 72 | 229 | 5.2 | 10.4 | 0.00 | 0.00 | 0.00 | ||
| 20260901081411 | 72 | 211 | 4.3 | 8.7 | 0.00 | 0.00 | 0.00 | ||
| 20260901081009 | 72 | 246 | 4.3 | 7.8 | 0.00 | 0.00 | 0.00 | ||
| 20260901080608 | 71 | 258 | 5.2 | 7.8 | 0.00 | 0.00 | 0.00 | ||
| 20260901080206 | 71 | 249 | 5.2 | 8.7 | 0.00 | 0.00 | 0.00 | ||
| 20260901075758 | 71 | 234 | 7.0 | 9.6 | 0.00 | 0.00 | 0.00 | ||
| 20260901075545 | 70 | 250 | 6.1 | 7.8 | 0.00 | 0.00 | 0.00 | ||
| 20260901075355 | 70 | 249 | 7.0 | 9.6 | 0.00 | 0.00 | 0.00 | ||
| 20260901074954 | 70 | 250 | 6.1 | 7.8 | 0.00 | 0.00 | 0.00 | ||
| 20260901074553 | 70 | 266 | 7.0 | 9.6 | 0.00 | 0.00 | 0.00 | ||
| 20260901074151 | 70 | 255 | 8.7 | 12.2 | 0.00 | 0.00 | 0.00 | ||
| 20260901073749 | 69 | 270 | 8.7 | 13.0 | 0.00 | 0.00 | 0.00 | ||
| 20260901073347 | 69 | 274 | 7.8 | 10.4 | 0.00 | 0.00 | 0.00 | ||
| 20260901072946 | 69 | 268 | 7.8 | 11.3 | 0.00 | 0.00 | 0.00 | ||
| 20260901072545 | 70 | 262 | 5.2 | 12.2 | 0.00 | 0.00 | 0.00 | ||
| 20260901072142 | 70 | 244 | 5.2 | 11.3 | 0.00 | 0.00 | 0.00 | ||
| 20260901071735 | 69 | 229 | 9.6 | 14.8 | 0.00 | 0.00 | 0.00 | ||
| 20260901071333 | 70 | 237 | 7.8 | 10.4 | 0.00 | 0.00 | 0.00 | ||
| 20260901070931 | 69 | 252 | 7.8 | 11.3 | 0.00 | 0.00 | 0.00 | ||
| 20260901070531 | 70 | 241 | 7.8 | 10.4 | 0.00 | 0.00 | 0.00 | ||
| 20260901070128 | 69 | 229 | 7.0 | 11.3 | 0.00 | 0.00 | 0.00 | ||
| 20260901065726 | 70 | 231 | 7.8 | 10.4 | 0.00 | 0.00 | 0.00 | ||
| 20260901065324 | 71 | 239 | 5.2 | 7.8 | 0.00 | 0.00 | 0.00 | ||
| 20260901064922 | 71 | 248 | 5.2 | 7.0 | 0.00 | 0.00 | 0.00 | ||
| 20260901064520 | 71 | 264 | 6.1 | 9.6 | 0.00 | 0.00 | 0.00 | ||
| 20260901064119 | 71 | 246 | 7.0 | 10.4 | 0.00 | 0.00 | 0.00 | ||
| 20260901063711 | 70 | 240 | 8.7 | 12.2 | 0.00 | 0.00 | 0.00 | ||
| 20260901063309 | 69 | 244 | 7.8 | 10.4 | 0.00 | 0.00 | 0.00 | ||
| 20260901062907 | 69 | 254 | 7.0 | 13.0 | 0.00 | 0.00 | 0.00 | ||
| 20260901062506 | 69 | 236 | 7.0 | 10.4 | 0.00 | 0.00 | 0.00 | ||
| 20260901062104 | 69 | 245 | 7.8 | 12.2 | 0.00 | 0.00 | 0.00 | ||
| 20260901061703 | 69 | 238 | 7.8 | 12.2 | 0.00 | 0.00 | 0.00 | ||
| 20260901061300 | 69 | 249 | 7.0 | 11.3 | 0.00 | 0.00 | 0.00 | ||
| 20260901060859 | 69 | 257 | 9.6 | 14.8 | 0.00 | 0.00 | 0.00 | ||
| 20260901060458 | 70 | 246 | 6.1 | 9.6 | 0.00 | 0.00 | 0.00 | ||
| 20260901060056 | 70 | 253 | 4.3 | 7.8 | 0.00 | 0.00 | 0.00 | ||
| 20260901055648 | 69 | 250 | 7.0 | 9.6 | 0.00 | 0.00 | 0.00 | ||
| 20260901055245 | 69 | 249 | 7.8 | 11.3 | 0.00 | 0.00 | 0.00 | ||
| 20260901054844 | 69 | 248 | 7.8 | 12.2 | 0.00 | 0.00 | 0.00 | ||
| 20260901054443 | 69 | 251 | 5.2 | 8.7 | 0.00 | 0.00 | 0.00 | ||
| 20260901054041 | 69 | 247 | 5.2 | 8.7 | 0.00 | 0.00 | 0.00 | ||
| 20260901053639 | 69 | 232 | 7.0 | 11.3 | 0.00 | 0.00 | 0.00 | ||
| 20260901053237 | 69 | 254 | 7.0 | 9.6 | 0.00 | 0.00 | 0.00 | ||
| 20260901052836 | 70 | 243 | 4.3 | 7.8 | 0.00 | 0.00 | 0.00 | ||
| 20260901052435 | 70 | 237 | 4.3 | 8.7 | 0.00 | 0.00 | 0.00 | ||
| 20260901052032 | 69 | 234 | 4.3 | 7.0 | 0.00 | 0.00 | 0.00 | ||
| 20260901051624 | 69 | 234 | 3.5 | 6.1 | 0.00 | 0.00 | 0.00 | ||
| 20260901051223 | 70 | 239 | 3.5 | 5.2 | 0.00 | 0.00 | 0.00 | ||
| 20260901050822 | 69 | 250 | 3.5 | 5.2 | 0.00 | 0.00 | 0.00 | ||
| 20260901050419 | 69 | 253 | 5.2 | 8.7 | 0.00 | 0.00 | 0.00 | ||
| 20260901050018 | 70 | 240 | 3.5 | 7.0 | 0.00 | 0.00 | 0.00 | ||
| 20260901045617 | 70 | 239 | 4.3 | 7.0 | 0.00 | 0.00 | 0.00 | ||
| 20260901045215 | 70 | 223 | 2.6 | 4.3 | 0.00 | 0.00 | 0.00 | ||
| 20260901044814 | 69 | 222 | 5.2 | 7.8 | 0.00 | 0.00 | 0.00 | ||
| 20260901044412 | 69 | 218 | 3.5 | 6.1 | 0.00 | 0.00 | 0.00 | ||
| 20260901044010 | 68 | 220 | 4.3 | 7.8 | 0.00 | 0.00 | 0.00 | ||
| 20260901043602 | 68 | 222 | 4.3 | 7.8 | 0.00 | 0.00 | 0.00 | ||
| 20260901043200 | 68 | 216 | 5.2 | 9.6 | 0.00 | 0.00 | 0.00 | ||
| 20260901042758 | 68 | 215 | 5.2 | 8.7 | 0.00 | 0.00 | 0.00 | ||
| 20260901042357 | 68 | 222 | 4.3 | 7.0 | 0.00 | 0.00 | 0.00 | ||
| 20260901041955 | 68 | 222 | 4.3 | 7.8 | 0.00 | 0.00 | 0.00 | ||
| 20260901041554 | 69 | 220 | 3.5 | 6.1 | 0.00 | 0.00 | 0.00 | ||
| 20260901041151 | 68 | 218 | 3.5 | 7.0 | 0.00 | 0.00 | 0.00 | ||
| 20260901040750 | 68 | 219 | 5.2 | 9.6 | 0.00 | 0.00 | 0.00 | ||
| 20260901040349 | 68 | 220 | 4.3 | 7.0 | 0.00 | 0.00 | 0.00 | ||
| 20260901035947 | 68 | 217 | 3.5 | 7.0 | 0.00 | 0.00 | 0.00 | ||
| 20260901035538 | 69 | 225 | 4.3 | 6.1 | 0.00 | 0.00 | 0.00 | ||
| 20260901035136 | 69 | 221 | 4.3 | 7.8 | 0.00 | 0.00 | 0.00 | ||
| 20260901034735 | 68 | 216 | 4.3 | 7.8 | 0.00 | 0.00 | 0.00 |